Location: Capelle
(50.3413°N, 1.9974°E)
Time: 22:31:56
(UTC+00:00)

Cosmos 304 Rocket - Pass Details

Date: 12 January 2026
Orbit: 669 x 676 km, 74.0° (Epoch: 7 February)

Event Time Altitude Azimuth Distance (km) Brightness Sun altitude
Rises 17:08:50 0° 335° (NNW) 3,041 7.1 -8.6°
Reaches altitude 10° 17:11:08 10° 336° (NNW) 2,121 6.3 -9.0°
Maximum altitude 17:15:55 88° 251° (WSW) 682 3.8 -9.7°
Drops below altitude 10° 17:20:40 10° 159° (SSE) 2,101 6.3 -10.4°
Sets 17:22:56 0° 159° (SSE) 3,010 7.1 -10.7°
